Simultaneous Nadir Overpasses (SNOs) Predictions

Prediction of SNOs between GOES-15 and NOAA-20 Satellite Orbit:

Table of predicted SNOs for the next 14.0 days since TLE Epoch: 8/17/2024
Index Date Time (GOES-15) GOES-15 Lat,Lon NOAA-20 Lat,Lon Distance(km) Time Diff (sec)
1 08/17/2024 09:10:32 -0.41, 61.69 0.03, 63.73 231.97 80
2 08/18/2024 21:32:19 0.42, 61.73 1.13, 58.46 372.31 80
3 08/19/2024 21:10:53 0.41, 61.72 0.11, 62.99 145.15 80
4 08/21/2024 09:32:49 -0.42, 61.64 -1.29, 57.69 450.60 80
5 08/22/2024 09:16:43 -0.41, 61.63 -0.26, 62.22 67.63 80
6 08/24/2024 21:19:43 0.42, 61.66 0.43, 61.49 18.74 80
7 08/25/2024 20:58:16 0.41, 61.65 -0.54, 66.03 498.41 80
8 08/27/2024 09:20:12 -0.41, 61.59 -0.60, 60.72 98.87 80
9 08/28/2024 09:04:05 -0.40, 61.58 0.39, 65.26 418.64 80
10 08/29/2024 21:25:51 0.40, 61.62 0.79, 60.00 185.70 80
11 08/30/2024 21:04:25 0.40, 61.62 -0.26, 64.53 331.12 80
